Regional Weather Roundup
Issued by NWS

Home | Current Version | Previous Version | Text Only | Print | Product List | Glossary Off
Versions: 1 2 3 4 5 6 7 8 9 10 11 12 13 14 15 16 17 18 19 20 21 22 23 24 25 26 27 28 29 30 31 32 33 34 35 36 37 38 39 40 41 42 43 44 45 46 47 48 49 50

000
ASUS43 KOAX 220710
RWRNE

WEATHER ROUNDUP FOR NEBRASKA
NATIONAL WEATHER SERVICE OMAHA NE
200 AM CDT TUE AUG 22 2017

NOTES: SATELLITE DATA IS BEING USED TO AUGMENT CLOUD COVER ABOVE
       12000 FEET.
       "FAIR" INDICATES FEW OR NO CLOUDS BELOW 12,000 FEET WITH NO
       SIGNIFICANT WEATHER AND/OR OBSTRUCTIONS TO VISIBILITY.


NEZ001>004-019>022-054>056-220800-
NEBRASKA PANHANDLE

CITY           SKY/WX    TMP DP  RH WIND       PRES   REMARKS
SCOTTSBLUFF    CLEAR     56  49  77 NE5       30.25S
ALLIANCE       CLEAR     48  44  86 N3        30.24R
CHADRON        CLEAR     51  45  79 W3        30.23R
GORDON         FAIR      50  45  83 CALM      30.23R
KIMBALL        CLEAR     56  48  74 NE7       30.29R
SIDNEY         CLEAR     60  49  66 NE7       30.27R
$$

NEZ057>060-069>072-079>082-220800-
SOUTHWEST NEBRASKA

CITY           SKY/WX    TMP DP  RH WIND       PRES   REMARKS
NORTH PLATTE   CLEAR     60  60 100 NW5       30.16R
IMPERIAL       CLEAR     63  60  90 N9        30.19R
LEXINGTON      CLEAR     65  62  91 N3        30.12R
MCCOOK         PTCLDY    67  65  93 NE7       30.12R
OGALLALA       CLEAR     63  60  91 N7        30.21R
$$

NEZ005>010-023>029-035>040-094-220800-
NORTH CENTRAL NEBRASKA

CITY           SKY/WX    TMP DP  RH WIND       PRES   REMARKS
VALENTINE      CLEAR     61  47  59 N6        30.18R
AINSWORTH      CLEAR     57  52  85 N6        30.17S
BROKEN BOW     CLEAR     63  61  93 N5        30.13R
O`NEILL        CLEAR     62  60  94 N6        30.12R
ORD            PTCLDY    62  59  90 NW5       30.09R
THEDFORD       CLEAR     61  54  78 N8        30.19S
$$

NEZ041-046>049-061>064-073>077-083>087-220800-
SOUTH CENTRAL NEBRASKA

CITY           SKY/WX    TMP DP  RH WIND       PRES   REMARKS
GRAND ISLAND   CLEAR     64  64 100 N5        30.08R
AURORA         PTCLDY    64  64 100 N6        30.06S
HASTINGS       MOCLDY    67  64  90 N8        30.08R
HEBRON         MOCLDY    68  65  90 NE6       30.03R
HOLDREGE       PTCLDY    65  63  93 N7        30.09S
KEARNEY        CLEAR     65  63  93 N8        30.10R
YORK           MOCLDY    66  66 100 CALM      30.05S
$$

NEZ011>018-030>034-042>045-220800-
NORTHEAST NEBRASKA

CITY           SKY/WX    TMP DP  RH WIND       PRES   REMARKS
NORFOLK        CLEAR     62  62 100 CALM      30.05R
ALBION         CLEAR     64  62  96 N7        30.08R
BLAIR          RAIN      64  63  97 CALM      30.01F VSB 1/2
COLUMBUS       CLEAR     62  62 100 NW3       30.06R
FREMONT        CLEAR     64  64  99 W3        30.03S
TEKAMAH        CLEAR     62  60  93 W3        30.01R
WAYNE          CLEAR     60  57  91 CALM      30.04R
$$

NEZ050>053-065>068-078-088>093-220800-
SOUTHEAST NEBRASKA

CITY           SKY/WX    TMP DP  RH WIND       PRES   REMARKS
LINCOLN        MOCLDY    66  65  96 N6        30.04S
OMAHA EPPLEY   CLOUDY    66  63  90 CALM      30.01S
BEATRICE       CLOUDY    67  66  96 NE6       30.01R
FALLS CITY     LGT RAIN  65  64  97 E8        29.97F
NEBRASKA CITY  DRIZZLE   65  65 100 S5        29.99F
PLATTSMOUTH    CLOUDY    65  64  96 CALM      30.02R
$$

NEZ044-045-051>053-067-220800-
OMAHA AREA

CITY           SKY/WX    TMP DP  RH WIND       PRES   REMARKS
OMAHA EPPLEY   CLOUDY    66  63  90 CALM      30.01S
BLAIR          RAIN      64  63  97 CALM      30.01F VSB 1/2
FREMONT        CLEAR     64  64  99 W3        30.03S
MILLARD        CLOUDY    67  65  94 CALM      30.02S
OFFUTT AFB     MOCLDY    64  63  94 NW6       30.00F
PLATTSMOUTH    CLOUDY    65  64  96 CALM      30.02R
WAHOO          FOG       64  64  97 CALM      30.02S VSB 3/4
$$




USA.gov is the U.S. government's official web portal to all federal, state and local government web resources and services.